period_start,C,m1,H,J0,J1,J2,J3,J4,J5,JA,JB,JC,JD,JJ,JK,JN,#
2013-10-28 00:00:46,0.16,0.28,0.00,24.97,26.31,29.13,5.82,30.13,1006.92,2050.97,3388.08,3262.41,3548.22,349.14,317.97,2.42,0000 0000 0000 0000 000000
2013-10-28 00:01:46,0.14,0.28,0.00,24.98,26.32,29.17,5.71,30.13,1006.94,2050.97,3387.77,3262.15,3548.07,349.41,318.36,2.43,0000 0000 0000 0000 000000
2013-10-28 00:02:46,0.12,0.28,0.00,24.97,26.32,29.13,5.98,29.96,1007.02,2050.96,3387.30,3262.05,3547.89,350.56,319.38,2.43,0000 0000 0000 0000 000000
2013-10-28 00:03:47,0.09,0.28,0.00,24.99,26.32,29.14,5.82,29.96,1007.12,2050.96,3387.10,3261.95,3547.49,349.42,318.65,2.44,0000 0000 0000 0000 000000
2013-10-28 00:04:47,0.09,0.28,0.00,24.99,26.32,29.14,5.79,29.92,1007.23,2050.96,3386.70,3261.46,3547.18,349.53,318.52,2.45,0000 0000 0000 0000 000000
2013-10-28 00:05:48,0.20,0.28,0.00,24.98,26.32,29.15,5.82,29.75,1007.28,2050.88,3386.27,3261.16,3547.03,350.75,319.54,2.45,0000 0000 0000 0000 000000
2013-10-28 00:06:48,0.07,0.28,0.00,24.98,26.32,29.17,5.84,29.83,1007.30,2050.88,3386.08,3261.03,3546.62,349.93,318.80,2.46,0000 0000 0000 0000 000000
2013-10-28 00:07:49,0.12,0.29,0.00,24.97,26.34,29.14,5.89,29.83,1007.31,2050.82,3385.72,3260.78,3546.24,350.01,318.88,2.46,0000 0000 0000 0000 000000
2013-10-28 00:08:49,0.07,0.29,0.00,24.98,26.34,29.18,5.87,29.46,1007.30,2050.84,3385.28,3260.38,3546.08,349.82,318.70,2.47,0000 0000 0000 0000 000000
2013-10-28 00:09:49,0.18,0.29,0.00,25.00,26.35,29.17,5.94,29.46,1007.31,2050.77,3385.10,3260.15,3545.95,351.01,319.78,2.48,0000 0000 0000 0000 000000
2013-10-28 00:10:50,0.02,0.29,0.00,25.00,26.35,29.19,5.81,29.88,1007.32,2050.71,3384.78,3260.05,3545.52,349.95,318.57,2.48,0000 0000 0000 0000 000000
2013-10-28 00:11:50,0.10,0.29,0.00,25.00,26.35,29.11,5.90,29.75,1007.34,2050.61,3384.32,3259.89,3545.19,350.72,319.51,2.49,0000 0000 0000 0000 000000
2013-10-28 00:12:51,0.04,0.29,0.00,25.01,26.35,29.10,5.92,30.00,1007.34,2050.44,3384.11,3259.43,3545.06,349.26,318.44,2.49,0000 0000 0000 0000 000000
2013-10-28 00:13:51,0.01,0.29,0.00,25.02,26.36,29.18,5.93,29.96,1007.33,2050.39,3384.02,3259.16,3544.99,350.99,319.74,2.50,0000 0000 0000 0000 000000
2013-10-28 00:14:51,0.07,0.29,0.00,25.02,26.37,29.21,5.87,30.13,1007.32,2050.44,3383.60,3259.05,3544.66,349.93,318.77,2.50,0000 0000 0000 0000 000000
2013-10-28 00:15:52,0.16,0.29,0.00,25.01,26.37,29.16,5.70,30.00,1007.32,2050.43,3383.23,3258.98,3544.26,349.58,318.45,2.51,0000 0000 0000 0000 000000
2013-10-28 00:16:52,0.08,0.29,0.00,25.02,26.37,29.20,5.83,30.00,1007.32,2050.38,3383.08,3258.73,3544.09,349.92,319.06,2.52,0000 0000 0000 0000 000000
2013-10-28 00:17:53,0.08,0.29,0.00,25.02,26.37,29.18,5.72,29.92,1007.34,2050.33,3382.78,3258.33,3544.01,349.34,318.24,2.52,0000 0000 0000 0000 000000
2013-10-28 00:18:53,0.07,0.29,0.00,25.02,26.37,29.19,5.74,30.00,1007.33,2050.28,3382.31,3258.11,3543.64,350.89,319.64,2.53,0000 0000 0000 0000 000000
2013-10-28 00:19:53,0.09,0.29,0.00,25.04,26.38,29.21,5.75,29.88,1007.31,2050.15,3382.10,3258.03,3543.25,349.38,318.25,2.53,0000 0000 0000 0000 000000
2013-10-28 00:20:53,-0.01,0.29,0.00,25.04,26.39,29.19,5.82,29.79,1007.31,2050.10,3381.75,3257.73,3543.08,349.44,318.30,2.54,0000 0000 0000 0000 000000
2013-10-28 00:21:54,0.14,0.29,0.00,25.03,26.39,29.19,5.82,29.92,1007.33,2050.10,3381.28,3257.30,3542.91,349.52,318.39,2.55,0000 0000 0000 0000 000000
2013-10-28 00:22:54,0.16,0.29,0.00,25.05,26.40,29.24,5.84,29.79,1007.34,2050.08,3381.10,3257.11,3542.49,350.06,318.86,2.55,0000 0000 0000 0000 000000
2013-10-28 00:23:54,0.07,0.29,0.00,25.06,26.40,29.26,5.72,29.88,1007.33,2050.05,3380.97,3257.04,3542.18,348.96,318.05,2.56,0000 0000 0000 0000 000000
2013-10-28 00:24:55,0.05,0.29,0.00,25.07,26.40,29.26,5.95,30.04,1007.34,2050.06,3380.49,3256.95,3542.06,350.06,318.83,2.56,0000 0000 0000 0000 000000
2013-10-28 00:25:55,0.12,0.29,0.00,25.06,26.40,29.23,5.87,29.96,1007.34,2050.06,3380.17,3256.54,3541.95,350.13,319.04,2.57,0000 0000 0000 0000 000000
2013-10-28 00:26:55,0.14,0.30,0.00,25.06,26.40,29.24,6.07,30.08,1007.34,2050.03,3380.04,3256.21,3541.46,350.88,319.59,2.57,0000 0000 0000 0000 000000
2013-10-28 00:27:56,0.12,0.30,0.00,25.05,26.42,29.25,5.87,30.00,1007.34,2050.05,3379.70,3256.07,3541.17,349.74,318.42,2.58,0000 0000 0000 0000 000000
2013-10-28 00:28:56,0.11,0.30,0.00,25.06,26.42,29.19,5.99,30.13,1007.34,2050.04,3379.27,3256.00,3541.05,350.43,319.13,2.59,0000 0000 0000 0000 000000
2013-10-28 00:29:56,0.07,0.30,0.00,25.08,26.42,29.24,5.92,29.96,1007.34,2050.02,3379.09,3255.64,3540.82,350.24,318.98,2.59,0000 0000 0000 0000 000000
2013-10-28 00:30:56,0.14,0.30,0.00,25.06,26.42,29.26,5.75,30.00,1007.34,2050.01,3378.75,3255.24,3540.38,350.17,318.91,2.60,0000 0000 0000 0000 000000
2013-10-28 00:31:57,0.17,0.30,0.00,25.05,26.42,29.27,5.88,29.83,1007.34,2050.00,3378.30,3255.08,3540.13,350.44,318.97,2.60,0000 0000 0000 0000 000000
2013-10-28 00:32:57,0.10,0.30,0.00,25.05,26.43,29.28,5.77,29.83,1007.34,2050.00,3378.09,3254.97,3540.02,349.54,318.59,2.61,0000 0000 0000 0000 000000
2013-10-28 00:33:57,0.06,0.30,0.00,25.06,26.44,29.29,5.94,29.67,1007.33,2050.00,3377.75,3254.53,3539.64,350.63,319.45,2.62,0000 0000 0000 0000 000000
2013-10-28 00:34:58,0.22,0.30,0.00,25.06,26.44,29.25,5.73,29.92,1007.34,2050.00,3377.30,3254.19,3539.24,348.73,317.63,2.62,0000 0000 0000 0000 000000
2013-10-28 00:35:58,0.15,0.30,0.00,25.06,26.45,29.27,5.75,29.79,1007.34,2050.00,3377.09,3254.07,3539.08,350.38,319.14,2.63,0000 0000 0000 0000 000000
2013-10-28 00:36:58,0.06,0.30,0.00,25.08,26.45,29.28,5.85,30.08,1007.34,2050.00,3376.86,3254.00,3538.99,349.92,318.70,2.63,0000 0000 0000 0000 000000
2013-10-28 00:37:59,0.04,0.30,0.00,25.08,26.45,29.30,5.80,29.79,1007.34,2050.00,3376.38,3253.73,3538.71,349.97,318.74,2.64,0000 0000 0000 0000 000000
2013-10-28 00:38:59,0.19,0.30,0.00,25.06,26.45,29.30,5.98,30.00,1007.34,2050.00,3376.13,3253.31,3538.29,350.50,319.25,2.65,0000 0000 0000 0000 000000
2013-10-28 00:39:59,0.16,0.31,0.00,25.06,26.46,29.25,6.00,30.00,1007.34,2050.00,3375.97,3253.11,3538.10,350.52,319.26,2.65,0000 0000 0000 0000 000000
2013-10-28 00:41:00,0.07,0.31,0.00,25.07,26.47,29.28,5.89,29.92,1007.34,2050.00,3375.53,3253.03,3538.02,350.62,319.34,2.66,0000 0000 0000 0000 000000
2013-10-28 00:42:00,0.09,0.31,0.00,25.08,26.47,29.32,5.71,29.75,1007.34,2050.00,3375.20,3252.88,3537.83,349.32,318.15,2.66,0000 0000 0000 0000 000000
2013-10-28 00:43:00,0.09,0.31,0.00,25.10,26.47,29.30,6.00,30.00,1007.34,2049.99,3375.04,3252.39,3537.36,350.91,319.58,2.67,0000 0000 0000 0000 000000
2013-10-28 00:44:01,0.19,0.31,0.00,25.11,26.47,29.28,5.78,29.88,1007.34,2049.98,3374.61,3252.14,3537.13,349.66,318.52,2.67,0000 0000 0000 0000 000000
2013-10-28 00:45:01,0.13,0.31,0.00,25.10,26.47,29.29,5.72,29.83,1007.34,2049.98,3374.24,3252.04,3537.04,349.81,318.58,2.68,0000 0000 0000 0000 000000
2013-10-28 00:46:01,0.07,0.31,0.00,25.08,26.47,29.30,5.90,30.17,1007.35,2049.98,3374.07,3251.97,3536.77,350.63,319.34,2.69,0000 0000 0000 0000 000000
2013-10-28 00:47:02,0.06,0.31,0.00,25.09,26.49,29.30,5.80,29.83,1007.34,2049.99,3373.87,3251.61,3536.33,349.44,318.30,2.69,0000 0000 0000 0000 000000
2013-10-28 00:48:02,0.16,0.31,0.00,25.08,26.50,29.34,5.99,29.92,1007.34,2049.98,3373.37,3251.25,3536.12,350.35,319.08,2.70,0000 0000 0000 0000 000000
2013-10-28 00:49:03,0.17,0.31,0.00,25.06,26.50,29.33,5.63,29.83,1007.34,2049.98,3373.13,3251.08,3536.01,350.98,319.68,2.70,0000 0000 0000 0000 000000
2013-10-28 00:50:03,0.08,0.31,0.00,25.06,26.50,29.35,5.63,29.54,1007.34,2049.96,3372.85,3250.98,3535.72,349.38,318.22,2.71,0000 0000 0000 0000 000000
2013-10-28 00:51:03,0.10,0.31,0.00,25.08,26.50,29.36,5.86,29.79,1007.34,2049.95,3372.35,3250.70,3535.29,350.14,318.90,2.72,0000 0000 0000 0000 000000
2013-10-28 00:52:04,0.17,0.31,0.00,25.09,26.50,29.31,5.92,30.04,1007.34,2049.95,3372.13,3250.32,3535.10,349.80,318.57,2.72,0000 0000 0000 0000 000000
2013-10-28 00:53:04,0.11,0.31,0.00,25.09,26.50,29.31,5.99,29.79,1007.34,2049.94,3372.00,3250.12,3535.02,350.62,319.33,2.73,0000 0000 0000 0000 000000
2013-10-28 00:54:04,0.07,0.31,0.00,25.09,26.52,29.31,5.94,29.33,1007.34,2049.96,3371.53,3250.03,3534.68,350.56,319.16,2.73,0000 0000 0000 0000 000000
2013-10-28 00:55:05,0.15,0.32,0.00,25.11,26.52,29.35,5.93,29.71,1007.34,2049.96,3371.20,3249.97,3534.27,350.01,318.66,2.74,0000 0000 0000 0000 000000
2013-10-28 00:56:05,0.10,0.32,0.00,25.10,26.52,29.36,5.96,29.96,1007.35,2049.96,3371.07,3249.69,3534.11,350.73,319.41,2.74,0000 0000 0000 0000 000000
2013-10-28 00:57:05,0.10,0.32,0.00,25.10,26.52,29.36,5.94,29.96,1007.37,2049.96,3370.79,3249.27,3534.03,349.81,318.58,2.75,0000 0000 0000 0000 000000
2013-10-28 00:58:05,0.12,0.32,0.00,25.10,26.52,29.30,5.73,29.83,1007.38,2049.95,3370.32,3249.09,3533.84,350.10,319.00,2.76,0000 0000 0000 0000 000000
2013-10-28 00:59:06,0.11,0.32,0.00,25.11,26.52,29.32,5.88,29.88,1007.38,2049.91,3370.09,3248.92,3533.38,349.69,318.57,2.76,0000 0000 0000 0000 000000
2013-10-28 01:00:06,0.09,0.32,0.00,25.11,26.53,29.38,6.06,30.17,1007.39,2049.88,3369.76,3248.51,3533.14,350.64,319.34,2.77,0000 0000 0000 0000 000000
2013-10-28 01:01:06,0.15,0.32,0.00,25.09,26.54,29.37,5.94,29.83,1007.36,2049.80,3369.34,3248.20,3533.03,350.07,319.03,2.77,0000 0000 0000 0000 000000
2013-10-28 01:02:07,0.06,0.32,0.00,25.07,26.55,29.36,5.86,29.83,1007.37,2049.76,3369.12,3248.07,3532.77,350.54,319.21,2.78,0000 0000 0000 0000 000000
2013-10-28 01:03:07,0.06,0.32,0.00,25.04,26.55,29.37,5.87,30.04,1007.40,2049.67,3368.93,3248.00,3532.35,350.43,319.23,2.79,0000 0000 0000 0000 000000
2013-10-28 01:04:07,0.03,0.32,0.00,25.02,26.55,29.26,5.96,29.92,1007.36,2049.66,3368.42,3247.73,3532.13,350.74,319.77,2.79,0000 0000 0000 0000 000000
2013-10-28 01:05:07,0.12,0.32,0.00,25.00,26.55,29.38,5.89,30.04,1007.35,2049.56,3368.15,3247.32,3532.04,350.19,318.83,2.80,0000 0000 0000 0000 000000
2013-10-28 01:06:08,0.02,0.32,0.00,24.97,26.55,29.32,5.93,30.00,1007.34,2049.50,3368.01,3247.11,3531.70,350.95,319.75,2.80,0000 0000 0000 0000 000000
2013-10-28 01:07:08,0.05,0.32,0.00,24.97,26.55,29.37,6.00,30.13,1007.37,2049.45,3367.59,3247.04,3531.30,350.77,319.61,2.81,0000 0000 0000 0000 000000
2013-10-28 01:08:08,0.09,0.32,0.00,24.96,26.56,29.36,5.76,29.92,1007.35,2049.42,3367.25,3246.95,3531.11,349.89,318.81,2.82,0000 0000 0000 0000 000000
2013-10-28 01:09:09,0.10,0.32,0.00,24.96,26.56,29.40,5.73,29.75,1007.35,2049.32,3367.08,3246.53,3531.03,349.99,318.89,2.82,0000 0000 0000 0000 000000
2013-10-28 01:10:09,0.05,0.32,0.00,24.96,26.57,29.38,5.86,29.96,1007.35,2049.38,3366.78,3246.19,3530.80,350.14,319.03,2.83,0000 0000 0000 0000 000000
2013-10-28 01:11:09,0.18,0.32,0.00,24.95,26.57,29.40,5.75,29.88,1007.36,2049.32,3366.32,3246.07,3530.36,349.29,318.20,2.83,0000 0000 0000 0000 000000
2013-10-28 01:12:09,0.12,0.33,0.00,24.96,26.57,29.34,5.90,29.67,1007.35,2049.25,3366.11,3246.01,3530.13,349.73,318.28,2.84,0000 0000 0000 0000 000000
2013-10-28 01:13:10,0.01,0.33,0.00,24.94,26.57,29.42,5.97,29.79,1007.36,2049.20,3365.92,3245.80,3530.04,350.41,319.30,2.84,0000 0000 0000 0000 000000
2013-10-28 01:14:10,0.04,0.33,0.00,24.91,26.57,29.35,5.88,29.83,1007.36,2049.17,3365.41,3245.36,3529.84,350.56,319.48,2.85,0000 0000 0000 0000 000000
2013-10-28 01:15:10,0.15,0.33,0.00,24.92,26.57,29.35,6.02,29.92,1007.35,2049.09,3365.15,3245.13,3529.36,351.11,319.96,2.86,0000 0000 0000 0000 000000
2013-10-28 01:16:10,0.07,0.33,0.00,24.90,26.57,29.39,5.71,29.71,1007.36,2049.08,3365.01,3245.03,3529.13,349.80,319.03,2.86,0000 0000 0000 0000 000000
2013-10-28 01:17:11,0.05,0.33,0.00,24.89,26.57,29.29,5.79,29.88,1007.39,2049.05,3364.57,3244.90,3529.05,349.91,318.90,2.87,0000 0000 0000 0000 000000
2013-10-28 01:18:11,0.09,0.33,0.00,24.88,26.57,29.41,5.86,29.58,1007.37,2049.06,3364.21,3244.53,3528.91,349.73,319.17,2.87,0000 0000 0000 0000 000000
2013-10-28 01:19:12,0.16,0.33,0.00,24.88,26.58,29.36,5.89,29.75,1007.37,2049.05,3364.07,3244.23,3528.44,350.68,319.60,2.88,0000 0000 0000 0000 000000
2013-10-28 01:20:12,0.11,0.33,0.00,24.87,26.58,29.33,5.99,29.83,1007.36,2049.02,3363.82,3244.07,3528.16,350.83,319.80,2.89,0000 0000 0000 0000 000000
2013-10-28 01:21:12,0.07,0.33,0.00,24.86,26.59,29.39,5.80,29.92,1007.38,2049.01,3363.35,3244.00,3528.05,350.25,319.00,2.89,0000 0000 0000 0000 000000
2013-10-28 01:22:12,0.07,0.33,0.00,24.86,26.59,29.33,6.07,30.17,1007.35,2049.01,3363.12,3243.88,3527.99,349.38,318.80,2.90,0000 0000 0000 0000 000000
2013-10-28 01:23:13,0.06,0.33,0.00,24.84,26.60,29.35,5.75,29.67,1007.36,2049.02,3363.02,3243.47,3527.77,348.96,318.08,2.90,0000 0000 0000 0000 000000
2013-10-28 01:24:13,0.15,0.33,0.00,24.87,26.60,29.38,5.77,29.54,1007.41,2049.06,3362.68,3243.18,3527.39,349.42,318.49,2.91,0000 0000 0000 0000 000000
2013-10-28 01:25:13,0.16,0.33,0.00,24.86,26.60,29.38,5.79,29.79,1007.39,2049.06,3362.26,3243.06,3527.14,349.59,319.14,2.91,0000 0000 0000 0000 000000
2013-10-28 01:26:14,0.10,0.33,0.00,24.84,26.60,29.33,5.79,29.75,1007.44,2049.05,3362.09,3242.99,3527.03,349.77,318.84,2.92,0000 0000 0000 0000 000000
2013-10-28 01:27:14,0.04,0.33,0.00,24.84,26.60,29.35,6.08,29.88,1007.49,2049.03,3361.81,3242.74,3526.84,350.64,319.80,2.93,0000 0000 0000 0000 000000
2013-10-28 01:28:15,0.12,0.33,0.00,24.84,26.60,29.37,5.97,29.83,1007.61,2049.01,3361.33,3242.32,3526.37,351.00,320.03,2.93,0000 0000 0000 0000 000000
2013-10-28 01:29:15,0.18,0.34,0.00,24.84,26.60,29.32,6.02,30.04,1007.64,2049.02,3361.12,3242.12,3526.13,350.93,319.97,2.94,0000 0000 0000 0000 000000
2013-10-28 01:30:15,0.10,0.34,0.00,24.84,26.60,29.32,5.82,29.71,1007.68,2049.03,3360.88,3242.03,3526.04,349.75,318.60,2.94,0000 0000 0000 0000 000000
2013-10-28 01:31:15,0.06,0.34,0.00,24.83,26.60,29.31,5.73,29.92,1007.74,2049.01,3360.39,3241.94,3525.87,349.64,318.69,2.95,0000 0000 0000 0000 000000
2013-10-28 01:32:16,0.11,0.34,0.00,24.82,26.60,29.38,5.87,29.42,1007.73,2049.01,3360.13,3241.61,3525.47,349.86,319.32,2.96,0000 0000 0000 0000 000000
2013-10-28 01:33:16,0.14,0.34,0.00,24.82,26.60,29.34,5.80,29.54,1007.79,2049.01,3360.00,3241.24,3525.18,349.60,319.07,2.96,0000 0000 0000 0000 000000
2013-10-28 01:34:16,0.13,0.34,0.00,24.85,26.60,29.37,5.88,29.71,1007.83,2049.01,3359.57,3241.08,3525.06,350.41,319.55,2.97,0000 0000 0000 0000 000000
2013-10-28 01:35:16,0.09,0.34,0.00,24.84,26.60,29.35,5.87,29.75,1007.83,2049.01,3359.21,3241.01,3524.98,350.21,319.49,2.97,0000 0000 0000 0000 000000
2013-10-28 01:36:17,0.07,0.34,0.00,24.82,26.60,29.33,5.84,29.71,1007.83,2049.01,3359.07,3240.90,3524.72,349.71,319.02,2.98,0000 0000 0000 0000 000000
2013-10-28 01:37:17,0.09,0.34,0.00,24.81,26.60,29.36,5.93,29.92,1007.83,2049.02,3358.84,3240.48,3524.32,350.29,319.73,2.99,0000 0000 0000 0000 000000
2013-10-28 01:38:17,0.16,0.34,0.00,24.80,26.60,29.39,5.75,29.67,1007.83,2049.02,3358.37,3240.17,3524.12,349.46,318.74,2.99,0000 0000 0000 0000 000000
2013-10-28 01:39:17,0.14,0.34,0.00,24.83,26.60,29.34,6.00,29.67,1007.83,2049.01,3358.13,3240.06,3524.03,349.38,318.64,3.00,0000 0000 0000 0000 000000
2013-10-28 01:40:18,0.06,0.34,0.00,24.83,26.60,29.40,5.72,29.54,1007.83,2049.00,3358.01,3240.01,3523.82,349.60,318.82,3.00,0000 0000 0000 0000 000000
2013-10-28 01:41:18,0.06,0.34,0.00,24.81,26.61,29.32,5.83,29.79,1007.83,2049.00,3357.63,3239.87,3523.41,350.48,319.65,3.01,0000 0000 0000 0000 000000
2013-10-28 01:42:18,0.14,0.34,0.00,24.81,26.61,29.30,5.75,29.63,1007.83,2049.00,3357.25,3239.43,3523.15,349.38,318.65,3.01,0000 0000 0000 0000 000000
2013-10-28 01:43:19,0.16,0.34,0.00,24.80,26.61,29.34,5.98,29.67,1007.84,2049.00,3357.08,3239.16,3523.05,350.66,319.83,3.02,0000 0000 0000 0000 000000
2013-10-28 01:44:19,0.09,0.35,0.00,24.79,26.61,29.33,5.93,29.67,1007.84,2049.00,3356.83,3239.05,3522.98,350.27,319.48,3.03,0000 0000 0000 0000 000000
2013-10-28 01:45:19,0.07,0.35,0.00,24.77,26.61,29.32,5.79,29.50,1007.85,2049.01,3356.34,3239.00,3522.65,350.52,319.50,3.03,0000 0000 0000 0000 000000
2013-10-28 01:46:20,0.12,0.35,0.00,24.79,26.61,29.32,5.89,29.50,1007.83,2049.02,3356.12,3238.81,3522.25,350.50,319.70,3.04,0000 0000 0000 0000 000000
2013-10-28 01:47:20,0.13,0.35,0.00,24.80,26.60,29.34,6.03,29.71,1007.84,2049.01,3356.02,3238.35,3522.09,350.76,319.93,3.04,0000 0000 0000 0000 000000
2013-10-28 01:48:20,0.12,0.35,0.00,24.80,26.60,29.33,5.92,29.58,1007.84,2049.00,3355.73,3238.13,3522.03,350.38,319.58,3.05,0000 0000 0000 0000 000000
2013-10-28 01:49:20,0.08,0.35,0.00,24.76,26.60,29.38,5.93,29.58,1007.84,2049.00,3355.32,3238.04,3521.89,350.74,319.80,3.06,0000 0000 0000 0000 000000
2013-10-28 01:50:21,0.09,0.35,0.00,24.73,26.60,29.35,5.99,29.71,1007.86,2049.00,3355.11,3238.01,3521.50,351.00,320.21,3.06,0000 0000 0000 0000 000000
2013-10-28 01:51:21,0.08,0.35,0.00,24.75,26.60,29.30,5.86,29.54,1007.86,2049.00,3354.96,3237.87,3521.20,350.43,319.69,3.07,0000 0000 0000 0000 000000
2013-10-28 01:52:21,0.09,0.35,0.00,24.75,26.60,29.33,5.88,29.50,1007.84,2049.00,3354.60,3237.49,3521.07,350.75,319.68,3.07,0000 0000 0000 0000 000000
2013-10-28 01:53:22,0.13,0.35,0.00,24.75,26.60,29.33,6.12,29.58,1007.85,2049.00,3354.23,3237.19,3521.00,350.50,319.84,3.08,0000 0000 0000 0000 000000
2013-10-28 01:54:22,0.11,0.35,0.00,24.75,26.60,29.34,6.04,29.75,1007.87,2049.00,3354.07,3237.07,3520.84,350.59,319.83,3.08,0000 0000 0000 0000 000000
2013-10-28 01:55:22,0.07,0.35,0.00,24.76,26.60,29.31,5.96,29.58,1007.87,2049.00,3353.85,3237.01,3520.41,349.40,318.74,3.09,0000 0000 0000 0000 000000
2013-10-28 01:56:23,0.09,0.35,0.00,24.73,26.60,29.31,5.82,29.38,1007.85,2049.00,3353.38,3236.92,3520.15,349.77,319.10,3.10,0000 0000 0000 0000 000000
2013-10-28 01:57:23,0.13,0.35,0.00,24.75,26.60,29.33,5.77,29.46,1007.84,2049.00,3353.14,3236.45,3520.05,349.86,319.16,3.10,0000 0000 0000 0000 000000
2013-10-28 01:58:23,0.12,0.35,0.00,24.75,26.60,29.31,5.96,29.63,1007.90,2049.00,3353.00,3236.16,3520.01,350.45,319.62,3.11,0000 0000 0000 0000 000000
2013-10-28 01:59:24,0.09,0.35,0.00,24.75,26.60,29.29,5.83,29.54,1007.89,2049.00,3352.56,3236.06,3519.77,349.81,319.12,3.11,0000 0000 0000 0000 000000
2013-10-28 02:00:24,0.11,0.35,0.00,24.74,26.60,29.28,5.83,29.63,1007.88,2049.00,3352.21,3236.01,3519.35,349.74,319.07,3.12,0000 0000 0000 0000 000000
2013-10-28 02:01:24,0.10,0.36,0.00,24.73,26.60,29.29,5.83,29.67,1007.88,2049.00,3352.07,3235.92,3519.13,349.53,318.84,3.13,0000 0000 0000 0000 000000
2013-10-28 02:02:25,0.07,0.36,0.00,24.74,26.60,29.29,5.94,29.54,1007.92,2049.00,3352.00,3235.57,3519.05,350.69,319.40,3.13,0000 0000 0000 0000 000000
2013-10-28 02:03:25,0.11,0.36,0.00,24.72,26.60,29.31,5.78,29.71,1007.96,2049.01,3351.60,3235.23,3519.01,349.05,318.48,3.14,0000 0000 0000 0000 000000
2013-10-28 02:04:25,0.13,0.36,0.00,24.73,26.60,29.30,5.83,29.79,1007.92,2049.01,3351.22,3235.08,3518.90,349.70,319.06,3.14,0000 0000 0000 0000 000000
2013-10-28 02:05:25,0.10,0.36,0.00,24.72,26.60,29.33,5.83,29.75,1007.92,2049.00,3351.08,3235.03,3518.49,350.82,319.56,3.15,0000 0000 0000 0000 000000
2013-10-28 02:06:26,0.07,0.36,0.00,24.72,26.60,29.37,5.93,29.63,1007.99,2049.00,3350.85,3234.98,3518.20,350.30,319.69,3.16,0000 0000 0000 0000 000000
2013-10-28 02:07:26,0.08,0.36,0.00,24.72,26.60,29.34,5.80,29.79,1008.03,2049.00,3350.39,3234.76,3518.08,350.20,319.22,3.16,0000 0000 0000 0000 000000
2013-10-28 02:08:26,0.13,0.36,0.00,24.71,26.60,29.32,5.94,29.83,1007.99,2049.00,3350.14,3234.35,3518.02,350.48,319.67,3.17,0000 0000 0000 0000 000000
2013-10-28 02:09:26,0.11,0.36,0.00,24.72,26.60,29.30,6.03,29.79,1008.04,2049.00,3350.04,3234.13,3517.93,349.32,318.75,3.17,0000 0000 0000 0000 000000
2013-10-28 02:10:27,0.08,0.36,0.00,24.70,26.60,29.29,5.77,29.79,1008.09,2049.00,3349.75,3234.05,3517.51,350.15,319.56,3.18,0000 0000 0000 0000 000000
2013-10-28 02:11:27,0.11,0.36,0.00,24.69,26.60,29.29,5.93,29.79,1008.13,2049.00,3349.30,3233.97,3517.21,350.46,319.31,3.18,0000 0000 0000 0000 000000
2013-10-28 02:12:27,0.11,0.36,0.00,24.69,26.60,29.29,5.81,29.83,1008.13,2049.00,3349.11,3233.74,3517.08,350.12,320.08,3.19,0000 0000 0000 0000 000000
2013-10-28 02:13:27,0.09,0.36,0.00,24.71,26.60,29.33,5.90,29.79,1008.12,2049.00,3349.02,3233.35,3517.02,349.12,319.01,3.20,0000 0000 0000 0000 000000
2013-10-28 02:14:28,0.09,0.36,0.00,24.71,26.60,29.28,5.85,29.67,1008.14,2049.00,3348.68,3233.14,3516.90,349.35,318.82,3.20,0000 0000 0000 0000 000000
2013-10-28 02:15:28,0.11,0.36,0.00,24.71,26.59,29.30,5.90,29.50,1008.22,2049.00,3348.27,3233.05,3516.51,350.44,319.76,3.21,0000 0000 0000 0000 000000
2013-10-28 02:16:29,0.11,0.37,0.00,24.71,26.59,29.30,5.69,29.46,1008.26,2049.00,3348.10,3233.00,3516.19,348.92,318.47,3.21,0000 0000 0000 0000 000000
2013-10-28 02:17:29,0.07,0.37,0.00,24.66,26.58,29.33,5.95,29.50,1008.26,2049.00,3347.86,3232.77,3516.06,350.48,319.95,3.22,0000 0000 0000 0000 000000
2013-10-28 02:18:29,0.11,0.37,0.00,24.67,26.58,29.35,5.79,29.67,1008.23,2049.00,3347.40,3232.30,3515.96,349.26,318.82,3.23,0000 0000 0000 0000 000000
2013-10-28 02:19:29,0.16,0.37,0.00,24.71,26.57,29.31,5.92,30.13,1008.21,2049.00,3347.14,3232.11,3515.66,349.57,319.01,3.23,0000 0000 0000 0000 000000
2013-10-28 02:20:30,0.11,0.37,0.00,24.69,26.57,29.33,5.73,29.75,1008.11,2049.00,3347.03,3232.03,3515.25,349.09,318.60,3.24,0000 0000 0000 0000 000000
2013-10-28 02:21:30,0.07,0.37,0.00,24.67,26.57,29.31,5.71,29.88,1008.11,2049.00,3346.83,3231.98,3515.09,349.19,319.03,3.24,0000 0000 0000 0000 000000
2013-10-28 02:22:30,0.06,0.37,0.00,24.66,26.57,29.24,5.83,29.71,1008.07,2049.00,3346.42,3231.92,3515.03,349.51,319.00,3.25,0000 0000 0000 0000 000000
2013-10-28 02:23:31,0.08,0.37,0.00,24.64,26.57,29.25,5.84,29.75,1008.08,2049.00,3346.15,3231.62,3514.97,350.25,320.08,3.25,0000 0000 0000 0000 000000
2013-10-28 02:24:31,0.11,0.37,0.00,24.62,26.57,29.26,5.92,30.00,1008.13,2049.00,3346.05,3231.25,3514.76,350.18,319.68,3.26,0000 0000 0000 0000 000000
2013-10-28 02:25:31,0.12,0.37,0.00,24.62,26.57,29.24,5.69,29.54,1008.15,2049.00,3345.88,3231.09,3514.34,349.66,319.21,3.27,0000 0000 0000 0000 000000
2013-10-28 02:26:31,0.11,0.37,0.00,24.64,26.57,29.25,6.08,29.83,1008.21,2049.00,3345.37,3231.02,3514.12,350.46,319.94,3.27,0000 0000 0000 0000 000000
2013-10-28 02:27:32,0.10,0.37,0.00,24.63,26.57,29.28,5.74,29.67,1008.24,2049.00,3345.13,3230.97,3514.04,349.47,319.06,3.28,0000 0000 0000 0000 000000
2013-10-28 02:28:32,0.06,0.37,0.00,24.62,26.57,29.24,5.67,29.67,1008.27,2049.00,3345.04,3230.72,3513.99,349.26,319.06,3.28,0000 0000 0000 0000 000000
2013-10-28 02:29:32,0.07,0.37,0.00,24.63,26.57,29.25,5.94,30.00,1008.28,2049.00,3344.85,3230.37,3513.87,350.02,319.57,3.29,0000 0000 0000 0000 000000
2013-10-28 02:30:33,0.12,0.37,0.00,24.62,26.57,29.26,5.77,29.71,1008.30,2049.01,3344.42,3230.15,3513.50,348.78,318.45,3.30,0000 0000 0000 0000 000000
2013-10-28 02:31:33,0.13,0.37,0.00,24.61,26.57,29.26,5.98,29.92,1008.31,2049.00,3344.16,3230.05,3513.21,350.66,320.19,3.30,0000 0000 0000 0000 000000
2013-10-28 02:32:33,0.07,0.37,0.00,24.59,26.57,29.25,5.89,29.92,1008.30,2049.01,3344.05,3230.01,3513.08,350.21,319.79,3.31,0000 0000 0000 0000 000000
2013-10-28 02:33:34,0.04,0.37,0.00,24.59,26.57,29.25,5.86,30.00,1008.31,2049.00,3343.84,3229.93,3513.01,349.82,319.44,3.31,0000 0000 0000 0000 000000
2013-10-28 02:34:34,0.09,0.38,0.00,24.59,26.57,29.27,5.79,29.83,1008.31,2049.00,3343.34,3229.54,3512.80,349.54,319.18,3.32,0000 0000 0000 0000 000000
2013-10-28 02:35:34,0.17,0.38,0.00,24.62,26.56,29.25,5.90,29.83,1008.31,2049.01,3343.12,3229.22,3512.38,349.32,318.94,3.33,0000 0000 0000 0000 000000
2013-10-28 02:36:35,0.13,0.38,0.00,24.64,26.56,29.25,5.79,29.63,1008.31,2049.01,3343.03,3229.08,3512.14,349.60,319.19,3.33,0000 0000 0000 0000 000000
2013-10-28 02:37:35,0.06,0.38,0.00,24.61,26.55,29.27,5.89,29.67,1008.31,2049.00,3342.75,3229.03,3512.05,350.09,319.82,3.34,0000 0000 0000 0000 000000